MMS 1

Last updated on Oct. 26, 2020, 5:52 a.m. UTC

1 40482U 15011A   20298.97081019 -.00000243  00000-0  00000-0 0  9992
2 40482  30.9625 119.4645 8525552  25.0712 102.9046  0.28491482 11589
UTC
Height (km)
Latitude
Longitude
Inclination
Orbital Period
UTC large
Height (km)
Speed (km/s)
/
Latitude / Longitude
Inclination (degrees)
Orbital Period (minutes)
Azimuth
Elevation
Range (km)
Doppler Factor
iOS Compass Heading
iOS Angle

Next 30 passes for location: Hong Kong

Rise time Rise Azimuth (degrees) Set time Set Azimuth (degrees) Duration Max altitude (degrees)

No matching passes for this satellites